"read_dt","SO2 (ppb)","flags","PMT voltage (V)","lamp voltage (V)","lamp intensity (Hz)","internal temp (C)","react chamber temp (C)","sample flow (l/min)","pres (mmHg)","SO2 bkg (ppb)","SO2 coefficient"
2014-12-03 00:00:00,2423E-3,5C000000,-0724,0834,12164,025.5,045.4,0.485,752.2,01.17,0.508
2014-12-03 00:01:00,2415E-3,5C000000,-0724,0834,12262,025.5,045.4,0.485,752.2,01.17,0.508
2014-12-03 00:02:00,2363E-3,5C000000,-0724,0833,12155,025.5,045.4,0.484,752.1,01.17,0.508
2014-12-03 00:03:00,2318E-3,5C000000,-0724,0833,12336,025.5,045.4,0.485,752.2,01.17,0.508
2014-12-03 00:04:00,2430E-3,5C000000,-0724,0834,12119,025.5,045.4,0.485,752.2,01.17,0.508
2014-12-03 00:05:00,2532E-3,5C000000,-0724,0833,12240,025.5,045.4,0.485,752.2,01.17,0.508
2014-12-03 00:06:00,2507E-3,5C000000,-0724,0833,12328,025.5,045.3,0.485,752.1,01.17,0.508
2014-12-03 00:07:00,2511E-3,5C000000,-0724,0834,12208,025.5,045.4,0.485,752.2,01.17,0.508
2014-12-03 00:08:00,2362E-3,5C000000,-0724,0833,12229,025.5,045.4,0.485,752.2,01.17,0.508
2014-12-03 00:09:00,2320E-3,5C000000,-0724,0833,12153,025.5,045.3,0.485,752.1,01.17,0.508
2014-12-03 00:10:00,2495E-3,5C000000,-0724,0833,12118,025.5,045.4,0.485,752.1,01.17,0.508
2014-12-03 00:11:00,2426E-3,5C000000,-0724,0834,12079,025.5,045.4,0.485,752.2,01.17,0.508
2014-12-03 00:12:00,2439E-3,5C000000,-0724,0833,12195,025.5,045.4,0.485,752.2,01.17,0.508
2014-12-03 00:13:00,2588E-3,5C000000,-0724,0834,12206,025.5,045.4,0.485,752.2,01.17,0.508
2014-12-03 00:14:00,2346E-3,5C000000,-0724,0833,12125,025.5,045.4,0.485,752.1,01.17,0.508
2014-12-03 00:15:00,2442E-3,5C000000,-0724,0834,12080,025.5,045.4,0.485,752.2,01.17,0.508
2014-12-03 00:16:00,2464E-3,5C000000,-0724,0832,12142,025.4,045.4,0.485,752.2,01.17,0.508
2014-12-03 00:17:00,2574E-3,5C000000,-0724,0833,12276,025.5,045.4,0.485,752.2,01.17,0.508
2014-12-03 00:18:00,2391E-3,5C000000,-0724,0832,12186,025.4,045.4,0.485,752.1,01.17,0.508
2014-12-03 00:19:00,2441E-3,5C000000,-0724,0833,12262,025.5,045.4,0.485,752.1,01.17,0.508
2014-12-03 00:20:00,2421E-3,5C000000,-0724,0833,12281,025.4,045.4,0.485,752.2,01.17,0.508
2014-12-03 00:21:00,2442E-3,5C000000,-0724,0833,12176,025.4,045.4,0.485,752.1,01.17,0.508
2014-12-03 00:22:00,2458E-3,5C000000,-0724,0833,12088,025.4,045.4,0.485,752.1,01.17,0.508
2014-12-03 00:23:00,2572E-3,5C000000,-0724,0833,12185,025.4,045.4,0.485,752.1,01.17,0.508
2014-12-03 00:24:00,2382E-3,5C000000,-0724,0833,12290,025.4,045.4,0.485,752.1,01.17,0.508
2014-12-03 00:25:00,2424E-3,5C000000,-0724,0833,12183,025.4,045.4,0.485,752.2,01.17,0.508
2014-12-03 00:26:00,2390E-3,5C000000,-0724,0832,12182,025.4,045.4,0.485,752.1,01.17,0.508
2014-12-03 00:27:00,2506E-3,5C000000,-0724,0833,12316,025.4,045.4,0.485,752.1,01.17,0.508
2014-12-03 00:28:00,2430E-3,5C000000,-0724,0833,12180,025.4,045.3,0.485,752.1,01.17,0.508
2014-12-03 00:29:00,2458E-3,5C000000,-0724,0833,12177,025.4,045.4,0.485,752.1,01.17,0.508
2014-12-03 00:30:00,2468E-3,5C000000,-0724,0832,12014,025.4,045.4,0.485,752.1,01.17,0.508
2014-12-03 00:31:00,2413E-3,5C000000,-0724,0833,11805,025.4,045.4,0.485,752.0,01.17,0.508
2014-12-03 00:32:00,2452E-3,5C000000,-0724,0834,12188,025.4,045.4,0.485,752.0,01.17,0.508
2014-12-03 00:33:00,2421E-3,5C000000,-0724,0833,12067,025.4,045.4,0.485,752.1,01.17,0.508
2014-12-03 00:34:00,2359E-3,5C000000,-0724,0833,12188,025.4,045.4,0.485,752.0,01.17,0.508
2014-12-03 00:35:00,2445E-3,5C000000,-0724,0834,12224,025.4,045.4,0.485,752.0,01.17,0.508
2014-12-03 00:36:00,2396E-3,5C000000,-0724,0833,12332,025.4,045.4,0.485,752.1,01.17,0.508
2014-12-03 00:37:00,2479E-3,5C000000,-0724,0833,12328,025.4,045.4,0.485,752.0,01.17,0.508
2014-12-03 00:38:00,2274E-3,5C000000,-0724,0834,12157,025.4,045.4,0.485,752.0,01.17,0.508
2014-12-03 00:39:00,2611E-3,5C000000,-0724,0834,12254,025.4,045.4,0.485,752.1,01.17,0.508
2014-12-03 00:40:00,2425E-3,5C000000,-0724,0833,12063,025.4,045.4,0.485,752.0,01.17,0.508
2014-12-03 00:41:00,2393E-3,5C000000,-0724,0834,12083,025.4,045.4,0.485,752.0,01.17,0.508
2014-12-03 00:42:00,2605E-3,5C000000,-0724,0834,12225,025.4,045.4,0.485,752.1,01.17,0.508
2014-12-03 00:43:00,2482E-3,5C000000,-0724,0833,12113,025.4,045.3,0.485,752.1,01.17,0.508
2014-12-03 00:44:00,2362E-3,5C000000,-0724,0833,12224,025.4,045.4,0.485,752.1,01.17,0.508
2014-12-03 00:45:00,2432E-3,5C000000,-0724,0833,12133,025.4,045.4,0.485,752.2,01.17,0.508
2014-12-03 00:46:00,2386E-3,5C000000,-0724,0833,12296,025.4,045.4,0.485,752.2,01.17,0.508
2014-12-03 00:47:00,2395E-3,5C000000,-0724,0834,12080,025.4,045.4,0.485,752.1,01.17,0.508
2014-12-03 00:48:00,2438E-3,5C000000,-0724,0833,12273,025.3,045.4,0.485,752.1,01.17,0.508
2014-12-03 00:49:00,2443E-3,5C000000,-0724,0832,12054,025.4,045.4,0.485,752.1,01.17,0.508
2014-12-03 00:50:00,2466E-3,5C000000,-0724,0833,12299,025.4,045.4,0.485,752.1,01.17,0.508
2014-12-03 00:51:00,2509E-3,5C000000,-0724,0833,12156,025.3,045.4,0.485,752.1,01.17,0.508
2014-12-03 00:52:00,2545E-3,5C000000,-0724,0834,12146,025.3,045.4,0.485,752.1,01.17,0.508
2014-12-03 00:53:00,2539E-3,5C000000,-0724,0833,12214,025.3,045.3,0.485,752.1,01.17,0.508
2014-12-03 00:54:00,2537E-3,5C000000,-0724,0832,12215,025.3,045.4,0.485,752.1,01.17,0.508
2014-12-03 00:55:00,2452E-3,5C000000,-0724,0832,12198,025.3,045.4,0.485,752.1,01.17,0.508
2014-12-03 00:56:00,2488E-3,5C000000,-0724,0832,12216,025.3,045.4,0.485,752.1,01.17,0.508
2014-12-03 00:57:00,2520E-3,5C000000,-0724,0833,12201,025.3,045.4,0.485,752.2,01.17,0.508
2014-12-03 00:58:00,2507E-3,5C000000,-0724,0832,11967,025.3,045.4,0.485,752.2,01.17,0.508
2014-12-03 00:59:00,2531E-3,5C000000,-0724,0833,12021,025.3,045.4,0.485,752.2,01.17,0.508
2014-12-03 01:00:00,2513E-3,5C000000,-0724,0833,12217,025.3,045.4,0.485,752.2,01.17,0.508
2014-12-03 01:01:00,2491E-3,5C000000,-0724,0833,12023,025.3,045.4,0.485,752.2,01.17,0.508
2014-12-03 01:02:00,2525E-3,5C000000,-0724,0833,12079,025.3,045.3,0.485,752.1,01.17,0.508
2014-12-03 01:03:00,2349E-3,5C000000,-0724,0834,12287,025.3,045.4,0.485,752.1,01.17,0.508
2014-12-03 01:04:00,2486E-3,5C000000,-0724,0834,12299,025.3,045.4,0.485,752.2,01.17,0.508
2014-12-03 01:05:00,2412E-3,5C000000,-0724,0833,12105,025.3,045.3,0.485,752.2,01.17,0.508
2014-12-03 01:06:00,2439E-3,5C000000,-0724,0833,12160,025.3,045.3,0.485,752.1,01.17,0.508
2014-12-03 01:07:00,2419E-3,5C000000,-0724,0833,12199,025.3,045.4,0.485,752.1,01.17,0.508
2014-12-03 01:08:00,2389E-3,5C000000,-0724,0833,12020,025.3,045.4,0.485,752.1,01.17,0.508
2014-12-03 01:09:00,2442E-3,5C000000,-0724,0833,12170,025.3,045.4,0.485,752.1,01.17,0.508
2014-12-03 01:10:00,2603E-3,5C000000,-0724,0833,12135,025.3,045.4,0.485,752.0,01.17,0.508
2014-12-03 01:11:00,2450E-3,5C000000,-0724,0834,12180,025.3,045.4,0.485,752.0,01.17,0.508
2014-12-03 01:12:00,2489E-3,5C000000,-0724,0834,12222,025.3,045.4,0.485,752.0,01.17,0.508
2014-12-03 01:13:00,2450E-3,5C000000,-0724,0833,12074,025.3,045.4,0.485,752.0,01.17,0.508
2014-12-03 01:14:00,2433E-3,5C000000,-0724,0833,12121,025.3,045.4,0.485,752.0,01.17,0.508
2014-12-03 01:15:00,2511E-3,5C000000,-0724,0833,12299,025.3,045.4,0.485,751.9,01.17,0.508
2014-12-03 01:16:00,2401E-3,5C000000,-0724,0833,12294,025.3,045.3,0.485,751.9,01.17,0.508
2014-12-03 01:17:00,2465E-3,5C000000,-0724,0833,12128,025.3,045.4,0.485,751.9,01.17,0.508
2014-12-03 01:18:00,2327E-3,5C000000,-0724,0834,12372,025.3,045.4,0.485,751.7,01.17,0.508
2014-12-03 01:19:00,2373E-3,5C000000,-0724,0833,12172,025.3,045.4,0.485,751.7,01.17,0.508
2014-12-03 01:20:00,2508E-3,5C000000,-0724,0833,12204,025.3,045.4,0.485,751.8,01.17,0.508
2014-12-03 01:21:00,2440E-3,5C000000,-0724,0834,12113,025.3,045.4,0.485,751.8,01.17,0.508
2014-12-03 01:22:00,2495E-3,5C000000,-0724,0833,12338,025.3,045.3,0.485,751.8,01.17,0.508
2014-12-03 01:23:00,2445E-3,5C000000,-0724,0832,12212,025.3,045.4,0.485,751.8,01.17,0.508
2014-12-03 01:24:00,2484E-3,5C000000,-0724,0833,12171,025.3,045.4,0.485,751.8,01.17,0.508
2014-12-03 01:25:00,2510E-3,5C000000,-0724,0833,12426,025.3,045.4,0.485,751.9,01.17,0.508
2014-12-03 01:26:00,2505E-3,5C000000,-0724,0833,12112,025.3,045.4,0.485,751.9,01.17,0.508
2014-12-03 01:27:00,2389E-3,5C000000,-0724,0833,12083,025.3,045.4,0.485,752.0,01.17,0.508
2014-12-03 01:28:00,2472E-3,5C000000,-0724,0832,12175,025.3,045.4,0.485,752.0,01.17,0.508
2014-12-03 01:29:00,2467E-3,5C000000,-0724,0833,12174,025.3,045.4,0.485,751.9,01.17,0.508
2014-12-03 01:30:00,2598E-3,5C000000,-0724,0831,12061,025.3,045.4,0.485,751.9,01.17,0.508
2014-12-03 01:31:00,2441E-3,5C000000,-0724,0833,12159,025.2,045.4,0.485,751.9,01.17,0.508
2014-12-03 01:32:00,2451E-3,5C000000,-0724,0833,12014,025.2,045.4,0.485,751.9,01.17,0.508
2014-12-03 01:33:00,2454E-3,5C000000,-0724,0833,12253,025.3,045.4,0.485,752.0,01.17,0.508
2014-12-03 01:34:00,2597E-3,5C000000,-0724,0833,12083,025.3,045.4,0.485,752.0,01.17,0.508
2014-12-03 01:35:00,2533E-3,5C000000,-0724,0832,12330,025.3,045.4,0.485,752.0,01.17,0.508
2014-12-03 01:36:00,2365E-3,5C000000,-0724,0834,12017,025.2,045.3,0.485,752.0,01.17,0.508
2014-12-03 01:37:00,2472E-3,5C000000,-0724,0833,12130,025.3,045.4,0.485,751.9,01.17,0.508
2014-12-03 01:38:00,2397E-3,5C000000,-0724,0834,12174,025.2,045.4,0.485,751.8,01.17,0.508
2014-12-03 01:39:00,2598E-3,5C000000,-0724,0833,12364,025.2,045.4,0.485,751.8,01.17,0.508
2014-12-03 01:40:00,2449E-3,5C000000,-0724,0833,12072,025.3,045.4,0.485,751.7,01.17,0.508
2014-12-03 01:41:00,2370E-3,5C000000,-0724,0833,12111,025.2,045.4,0.485,751.6,01.17,0.508
2014-12-03 01:42:00,2621E-3,5C000000,-0724,0834,12344,025.3,045.4,0.485,751.6,01.17,0.508
2014-12-03 01:43:00,2439E-3,5C000000,-0724,0833,12293,025.2,045.4,0.485,751.6,01.17,0.508
2014-12-03 01:44:00,2627E-3,5C000000,-0724,0833,12258,025.2,045.4,0.485,751.7,01.17,0.508
2014-12-03 01:45:00,2519E-3,5C000000,-0724,0833,12213,025.2,045.4,0.485,751.7,01.17,0.508
2014-12-03 01:46:00,2512E-3,5C000000,-0724,0833,12051,025.2,045.4,0.485,751.7,01.17,0.508
2014-12-03 01:47:00,2609E-3,5C000000,-0724,0833,11905,025.2,045.4,0.485,751.8,01.17,0.508
2014-12-03 01:48:00,2482E-3,5C000000,-0724,0834,12270,025.2,045.4,0.485,751.7,01.17,0.508
2014-12-03 01:49:00,2493E-3,5C000000,-0724,0834,12269,025.2,045.4,0.485,751.8,01.17,0.508
2014-12-03 01:50:00,2629E-3,5C000000,-0724,0833,12292,025.2,045.4,0.485,751.7,01.17,0.508
2014-12-03 01:51:00,2569E-3,5C000000,-0724,0833,12201,025.2,045.4,0.485,751.8,01.17,0.508
2014-12-03 01:52:00,2407E-3,5C000000,-0724,0833,12123,025.2,045.4,0.485,751.8,01.17,0.508
2014-12-03 01:53:00,2441E-3,5C000000,-0724,0832,12104,025.2,045.4,0.485,751.8,01.17,0.508
2014-12-03 01:54:00,2474E-3,5C000000,-0724,0834,12080,025.2,045.4,0.485,751.8,01.17,0.508
2014-12-03 01:55:00,2588E-3,5C000000,-0724,0833,12249,025.2,045.4,0.485,751.7,01.17,0.508
2014-12-03 01:56:00,2469E-3,5C000000,-0724,0832,12183,025.2,045.4,0.485,751.7,01.17,0.508
2014-12-03 01:57:00,2662E-3,5C000000,-0724,0833,12158,025.2,045.3,0.485,751.7,01.17,0.508
2014-12-03 01:58:00,2537E-3,5C000000,-0724,0833,12225,025.2,045.4,0.485,751.7,01.17,0.508
2014-12-03 01:59:00,2458E-3,5C000000,-0724,0833,12347,025.2,045.4,0.485,751.8,01.17,0.508
2014-12-03 02:00:00,2570E-3,5C000000,-0724,0833,12214,025.2,045.4,0.485,751.7,01.17,0.508
2014-12-03 02:01:00,2376E-3,5C000000,-0724,0833,12102,025.2,045.4,0.485,751.8,01.17,0.508
2014-12-03 02:02:00,2620E-3,5C000000,-0724,0833,12076,025.2,045.4,0.485,751.8,01.17,0.508
2014-12-03 02:03:00,2447E-3,5C000000,-0724,0834,12185,025.2,045.4,0.485,751.9,01.17,0.508
2014-12-03 02:04:00,2506E-3,5C000000,-0724,0833,12284,025.2,045.4,0.485,751.9,01.17,0.508
2014-12-03 02:05:00,2421E-3,5C000000,-0724,0833,12177,025.2,045.4,0.485,751.9,01.17,0.508
2014-12-03 02:06:00,2510E-3,5C000000,-0724,0833,12119,025.2,045.4,0.485,751.9,01.17,0.508
2014-12-03 02:07:00,2440E-3,5C000000,-0724,0834,12216,025.2,045.4,0.485,751.8,01.17,0.508
2014-12-03 02:08:00,2383E-3,5C000000,-0724,0833,12123,025.2,045.4,0.485,751.8,01.17,0.508
2014-12-03 02:09:00,2590E-3,5C000000,-0724,0833,12054,025.2,045.4,0.485,751.8,01.17,0.508
2014-12-03 02:10:00,2636E-3,5C000000,-0724,0834,12188,025.2,045.4,0.485,751.8,01.17,0.508
2014-12-03 02:11:00,2466E-3,5C000000,-0724,0832,12095,025.2,045.4,0.485,751.7,01.17,0.508
2014-12-03 02:12:00,2554E-3,5C000000,-0724,0833,12173,025.2,045.4,0.485,751.8,01.17,0.508
2014-12-03 02:13:00,2498E-3,5C000000,-0724,0834,12207,025.2,045.4,0.485,751.8,01.17,0.508
2014-12-03 02:14:00,2483E-3,5C000000,-0724,0833,12022,025.2,045.4,0.485,751.8,01.17,0.508
2014-12-03 02:15:00,2609E-3,5C000000,-0724,0833,12023,025.2,045.4,0.485,751.8,01.17,0.508
2014-12-03 02:16:00,2631E-3,5C000000,-0724,0832,11805,025.2,045.4,0.485,751.7,01.17,0.508
2014-12-03 02:17:00,2430E-3,5C000000,-0724,0833,12048,025.2,045.4,0.485,751.7,01.17,0.508
2014-12-03 02:18:00,2434E-3,5C000000,-0724,0833,12045,025.2,045.4,0.485,751.7,01.17,0.508
2014-12-03 02:19:00,2466E-3,5C000000,-0724,0833,12266,025.1,045.4,0.485,751.7,01.17,0.508
2014-12-03 02:20:00,2568E-3,5C000000,-0724,0832,12158,025.1,045.4,0.485,751.7,01.17,0.508
2014-12-03 02:21:00,2374E-3,5C000000,-0724,0833,12136,025.1,045.4,0.485,751.8,01.17,0.508
2014-12-03 02:22:00,2492E-3,5C000000,-0724,0833,12259,025.1,045.4,0.485,751.8,01.17,0.508
2014-12-03 02:23:00,2434E-3,5C000000,-0724,0833,12200,025.1,045.4,0.486,751.7,01.17,0.508
2014-12-03 02:24:00,2488E-3,5C000000,-0724,0833,12269,025.1,045.4,0.486,751.8,01.17,0.508
2014-12-03 02:25:00,2566E-3,5C000000,-0724,0832,12134,025.1,045.3,0.485,751.8,01.17,0.508
2014-12-03 02:26:00,2516E-3,5C000000,-0724,0833,11987,025.1,045.4,0.485,751.9,01.17,0.508
2014-12-03 02:27:00,2598E-3,5C000000,-0724,0833,12210,025.1,045.4,0.485,751.9,01.17,0.508
2014-12-03 02:28:00,2460E-3,5C000000,-0724,0832,11968,025.1,045.4,0.485,751.9,01.17,0.508
2014-12-03 02:29:00,2597E-3,5C000000,-0724,0833,12289,025.1,045.4,0.485,751.8,01.17,0.508
2014-12-03 02:30:00,2431E-3,5C000000,-0724,0832,12124,025.1,045.4,0.486,751.8,01.17,0.508
2014-12-03 02:31:00,2532E-3,5C000000,-0724,0834,12319,025.1,045.4,0.486,751.9,01.17,0.508
2014-12-03 02:32:00,2432E-3,5C000000,-0724,0834,12191,025.1,045.4,0.485,751.9,01.17,0.508
2014-12-03 02:33:00,2511E-3,5C000000,-0724,0833,12278,025.1,045.3,0.485,751.9,01.17,0.508
2014-12-03 02:34:00,2482E-3,5C000000,-0724,0833,12188,025.1,045.4,0.486,751.9,01.17,0.508
2014-12-03 02:35:00,2454E-3,5C000000,-0724,0833,12180,025.1,045.4,0.485,752.0,01.17,0.508
2014-12-03 02:36:00,2423E-3,5C000000,-0724,0833,12169,025.1,045.4,0.485,751.9,01.17,0.508
2014-12-03 02:37:00,2421E-3,5C000000,-0724,0833,12032,025.1,045.4,0.485,751.9,01.17,0.508
2014-12-03 02:38:00,2423E-3,5C000000,-0724,0833,12212,025.1,045.3,0.485,751.9,01.17,0.508
2014-12-03 02:39:00,2399E-3,5C000000,-0724,0833,12204,025.1,045.4,0.485,752.0,01.17,0.508
2014-12-03 02:40:00,2281E-3,5C000000,-0724,0833,12212,025.1,045.4,0.486,752.0,01.17,0.508
2014-12-03 02:41:00,2397E-3,5C000000,-0724,0833,12202,025.1,045.4,0.486,751.9,01.17,0.508
2014-12-03 02:42:00,2367E-3,5C000000,-0724,0833,12053,025.1,045.4,0.485,752.0,01.17,0.508
2014-12-03 02:43:00,2459E-3,5C000000,-0724,0833,12092,025.1,045.4,0.485,752.0,01.17,0.508
2014-12-03 02:44:00,2427E-3,5C000000,-0724,0833,12282,025.1,045.4,0.485,751.9,01.17,0.508
2014-12-03 02:45:00,2560E-3,5C000000,-0724,0834,12027,025.1,045.4,0.485,752.0,01.17,0.508
2014-12-03 02:46:00,2408E-3,5C000000,-0724,0834,12113,025.1,045.4,0.486,752.0,01.17,0.508
2014-12-03 02:47:00,2517E-3,5C000000,-0724,0833,12399,025.0,045.4,0.486,752.0,01.17,0.508
2014-12-03 02:48:00,2485E-3,5C000000,-0724,0832,12266,025.1,045.4,0.486,752.0,01.17,0.508
2014-12-03 02:49:00,2426E-3,5C000000,-0724,0832,12079,025.0,045.4,0.485,752.0,01.17,0.508
2014-12-03 02:50:00,2468E-3,5C000000,-0724,0833,12276,025.1,045.4,0.485,752.0,01.17,0.508
2014-12-03 02:51:00,2545E-3,5C000000,-0724,0833,12283,025.1,045.4,0.485,752.0,01.17,0.508
2014-12-03 02:52:00,2535E-3,5C000000,-0724,0832,12142,025.1,045.4,0.485,752.0,01.17,0.508
2014-12-03 02:53:00,2449E-3,5C000000,-0724,0833,12175,025.1,045.3,0.486,752.0,01.17,0.508
2014-12-03 02:54:00,2592E-3,5C000000,-0724,0833,12278,025.1,045.3,0.486,752.0,01.17,0.508
2014-12-03 02:55:00,2433E-3,5C000000,-0724,0833,12307,025.1,045.4,0.486,752.0,01.17,0.508
2014-12-03 02:56:00,2465E-3,5C000000,-0724,0833,12374,025.0,045.4,0.485,752.0,01.17,0.508
2014-12-03 02:57:00,2440E-3,5C000000,-0724,0833,12172,025.0,045.3,0.485,752.0,01.17,0.508
2014-12-03 02:58:00,2442E-3,5C000000,-0724,0833,12045,025.1,045.4,0.485,752.0,01.17,0.508
2014-12-03 02:59:00,2408E-3,5C000000,-0724,0833,12217,025.0,045.3,0.485,752.0,01.17,0.508
2014-12-03 03:00:00,2591E-3,5C000000,-0724,0833,12099,025.0,045.4,0.486,752.0,01.17,0.508
2014-12-03 03:01:00,2424E-3,5C000000,-0724,0833,12217,025.1,045.4,0.486,752.0,01.17,0.508
2014-12-03 03:02:00,2283E-3,5C000000,-0724,0832,12207,025.0,045.4,0.486,751.9,01.17,0.508
2014-12-03 03:03:00,2323E-3,5C000000,-0724,0833,12095,025.0,045.3,0.485,752.0,01.17,0.508
2014-12-03 03:04:00,2579E-3,5C000000,-0724,0833,12174,025.0,045.3,0.485,752.0,01.17,0.508
2014-12-03 03:05:00,2477E-3,5C000000,-0724,0834,12077,025.0,045.4,0.485,751.9,01.17,0.508
2014-12-03 03:06:00,2495E-3,5C000000,-0724,0833,12162,025.0,045.4,0.485,751.9,01.17,0.508
2014-12-03 03:07:00,2391E-3,5C000000,-0724,0834,12224,025.0,045.4,0.486,752.0,01.17,0.508
2014-12-03 03:08:00,2567E-3,5C000000,-0724,0832,12173,025.0,045.3,0.486,752.1,01.17,0.508
2014-12-03 03:09:00,2415E-3,5C000000,-0724,0834,12167,025.0,045.4,0.486,752.0,01.17,0.508
2014-12-03 03:10:00,2431E-3,5C000000,-0724,0832,12246,025.0,045.4,0.485,752.0,01.17,0.508
2014-12-03 03:11:00,2510E-3,5C000000,-0724,0832,11978,025.0,045.4,0.485,751.9,01.17,0.508
2014-12-03 03:12:00,2485E-3,5C000000,-0724,0832,12179,025.0,045.3,0.485,751.9,01.17,0.508
2014-12-03 03:13:00,2563E-3,5C000000,-0724,0833,12074,025.0,045.4,0.485,752.0,01.17,0.508
2014-12-03 03:14:00,2453E-3,5C000000,-0724,0833,12171,024.9,045.4,0.486,752.0,01.17,0.508
2014-12-03 03:15:00,2452E-3,5C000000,-0724,0834,12267,025.0,045.4,0.486,752.0,01.17,0.508
2014-12-03 03:16:00,2411E-3,5C000000,-0724,0833,12162,025.0,045.3,0.486,751.9,01.17,0.508
2014-12-03 03:17:00,2473E-3,5C000000,-0724,0833,12210,025.0,045.3,0.485,752.0,01.17,0.508
2014-12-03 03:18:00,2483E-3,5C000000,-0724,0833,12229,025.0,045.3,0.485,752.0,01.17,0.508
2014-12-03 03:19:00,2486E-3,5C000000,-0724,0833,12107,025.0,045.4,0.485,752.0,01.17,0.508
2014-12-03 03:20:00,2589E-3,5C000000,-0724,0833,12255,024.9,045.4,0.486,752.0,01.17,0.508
2014-12-03 03:21:00,2580E-3,5C000000,-0724,0834,12104,025.0,045.4,0.486,752.0,01.17,0.508
2014-12-03 03:22:00,2555E-3,5C000000,-0724,0833,12112,024.9,045.4,0.486,751.9,01.17,0.508
2014-12-03 03:23:00,2722E-3,5C000000,-0724,0833,12246,024.9,045.4,0.486,752.0,01.17,0.508
2014-12-03 03:24:00,2385E-3,5C000000,-0724,0833,12091,024.9,045.4,0.485,751.9,01.17,0.508
2014-12-03 03:25:00,2568E-3,5C000000,-0724,0833,11824,024.9,045.4,0.485,752.0,01.17,0.508
2014-12-03 03:26:00,2391E-3,5C000000,-0724,0832,12125,024.9,045.4,0.485,752.0,01.17,0.508
2014-12-03 03:27:00,2480E-3,5C000000,-0724,0833,12168,024.9,045.4,0.486,752.0,01.17,0.508
2014-12-03 03:28:00,2402E-3,5C000000,-0724,0833,12006,024.9,045.3,0.486,752.0,01.17,0.508
2014-12-03 03:29:00,2487E-3,5C000000,-0724,0834,12202,024.9,045.4,0.486,751.7,01.17,0.508
2014-12-03 03:30:00,2510E-3,5C000000,-0724,0833,12157,024.9,045.4,0.485,752.1,01.17,0.508
2014-12-03 03:31:00,2460E-3,5C000000,-0724,0833,12052,024.9,045.4,0.485,752.0,01.17,0.508
2014-12-03 03:32:00,2616E-3,5C000000,-0724,0833,12180,024.9,045.4,0.485,752.1,01.17,0.508
2014-12-03 03:33:00,2438E-3,5C000000,-0724,0833,12046,024.9,045.3,0.486,752.0,01.17,0.508
2014-12-03 03:34:00,2415E-3,5C000000,-0724,0833,12107,024.9,045.4,0.486,752.1,01.17,0.508
2014-12-03 03:35:00,2447E-3,5C000000,-0724,0833,12165,024.9,045.4,0.486,752.1,01.17,0.508
2014-12-03 03:36:00,2456E-3,5C000000,-0724,0833,12223,024.8,045.3,0.486,752.1,01.17,0.508
2014-12-03 03:37:00,2464E-3,5C000000,-0724,0834,12227,024.9,045.3,0.485,752.1,01.17,0.508
2014-12-03 03:38:00,2458E-3,5C000000,-0724,0834,12268,024.8,045.4,0.485,752.1,01.17,0.508
2014-12-03 03:39:00,2414E-3,5C000000,-0724,0833,11885,024.8,045.4,0.486,752.1,01.17,0.508
2014-12-03 03:40:00,2557E-3,5C000000,-0724,0833,12103,024.8,045.4,0.486,752.2,01.17,0.508
2014-12-03 03:41:00,2434E-3,5C000000,-0724,0833,12225,024.8,045.4,0.486,752.2,01.17,0.508
2014-12-03 03:42:00,2488E-3,5C000000,-0724,0833,12313,024.9,045.4,0.486,752.2,01.17,0.508
2014-12-03 03:43:00,2491E-3,5C000000,-0724,0834,12153,024.9,045.3,0.485,752.1,01.17,0.508
2014-12-03 03:44:00,2409E-3,5C000000,-0724,0833,12234,024.9,045.3,0.486,752.1,01.17,0.508
2014-12-03 03:45:00,2398E-3,5C000000,-0724,0833,12235,024.8,045.4,0.486,752.2,01.17,0.508
2014-12-03 03:46:00,2274E-3,5C000000,-0724,0832,12237,024.8,045.4,0.486,752.1,01.17,0.508
2014-12-03 03:47:00,2565E-3,5C000000,-0724,0834,12167,024.8,045.3,0.486,752.2,01.17,0.508
2014-12-03 03:48:00,2375E-3,5C000000,-0724,0834,12249,024.8,045.4,0.486,752.2,01.17,0.508
2014-12-03 03:49:00,2451E-3,5C000000,-0724,0833,12220,024.8,045.4,0.486,752.3,01.17,0.508
2014-12-03 03:50:00,2335E-3,5C000000,-0724,0834,12194,024.8,045.3,0.486,752.2,01.17,0.508
2014-12-03 03:51:00,2381E-3,5C000000,-0724,0834,12178,024.8,045.4,0.486,752.1,01.17,0.508
2014-12-03 03:52:00,2492E-3,5C000000,-0724,0833,12168,024.8,045.4,0.486,752.2,01.17,0.508
2014-12-03 03:53:00,2439E-3,5C000000,-0724,0833,12148,024.8,045.4,0.486,752.1,01.17,0.508
2014-12-03 03:54:00,2454E-3,5C000000,-0724,0833,12197,024.8,045.4,0.485,752.1,01.17,0.508
2014-12-03 03:55:00,2359E-3,5C000000,-0724,0833,12229,024.8,045.4,0.486,752.1,01.17,0.508
2014-12-03 03:56:00,2438E-3,5C000000,-0724,0833,12366,024.8,045.3,0.486,752.1,01.17,0.508
2014-12-03 03:57:00,2512E-3,5C000000,-0724,0833,12208,024.8,045.4,0.486,752.0,01.17,0.508
2014-12-03 03:58:00,2433E-3,5C000000,-0724,0833,12113,024.8,045.4,0.486,752.1,01.17,0.508
2014-12-03 03:59:00,2541E-3,5C000000,-0724,0834,12207,024.8,045.3,0.485,752.1,01.17,0.508
2014-12-03 04:00:00,2389E-3,5C000000,-0724,0833,12186,024.8,045.3,0.486,752.1,01.17,0.508
2014-12-03 04:01:00,2393E-3,5C000000,-0724,0833,12124,024.8,045.3,0.486,752.2,01.17,0.508
2014-12-03 04:02:00,2570E-3,5C000000,-0724,0834,12281,024.8,045.3,0.486,752.2,01.17,0.508
2014-12-03 04:03:00,2490E-3,5C000000,-0724,0833,12104,024.8,045.4,0.486,752.2,01.17,0.508
2014-12-03 04:04:00,2493E-3,5C000000,-0724,0833,11883,024.8,045.3,0.486,752.2,01.17,0.508
2014-12-03 04:05:00,2373E-3,5C000000,-0724,0834,12215,024.8,045.4,0.486,752.2,01.17,0.508
2014-12-03 04:06:00,2336E-3,5C000000,-0724,0833,12230,024.8,045.3,0.486,752.1,01.17,0.508
2014-12-03 04:07:00,2517E-3,5C000000,-0724,0833,12051,024.8,045.4,0.486,752.1,01.17,0.508
2014-12-03 04:08:00,2258E-3,5C000000,-0724,0833,12125,024.8,045.4,0.486,752.1,01.17,0.508
2014-12-03 04:09:00,2399E-3,5C000000,-0724,0832,12205,024.8,045.4,0.485,752.2,01.17,0.508
2014-12-03 04:10:00,2405E-3,5C000000,-0724,0834,12196,024.8,045.4,0.486,752.1,01.17,0.508
2014-12-03 04:11:00,2400E-3,5C000000,-0724,0833,12064,024.8,045.4,0.486,752.3,01.17,0.508
2014-12-03 04:12:00,2499E-3,5C000000,-0724,0833,12131,024.8,045.4,0.486,752.3,01.17,0.508
2014-12-03 04:13:00,2370E-3,5C000000,-0724,0833,11992,024.8,045.3,0.486,752.3,01.17,0.508
2014-12-03 04:14:00,2402E-3,5C000000,-0724,0833,12087,024.8,045.3,0.486,752.3,01.17,0.508
2014-12-03 04:15:00,2506E-3,5C000000,-0724,0833,12260,024.8,045.3,0.486,752.3,01.17,0.508
2014-12-03 04:16:00,2329E-3,5C000000,-0724,0833,12247,024.8,045.4,0.486,752.2,01.17,0.508
2014-12-03 04:17:00,2374E-3,5C000000,-0724,0834,12188,024.8,045.4,0.486,752.2,01.17,0.508
2014-12-03 04:18:00,2403E-3,5C000000,-0724,0832,12343,024.8,045.3,0.486,752.3,01.17,0.508
2014-12-03 04:19:00,2478E-3,5C000000,-0724,0833,12085,024.7,045.3,0.486,752.3,01.17,0.508
2014-12-03 04:20:00,2260E-3,5C000000,-0724,0833,12060,024.7,045.4,0.486,752.3,01.17,0.508